Location: Vancouver
(49.2500°N, 123.1330°W)
Time: 02:25:24
(UTC-08:00)

Iridium 21 - Visible Passes

Search period start: 26 January 2015 00:00
Search period end: 05 February 2015 00:00
Orbit: 776 x 779 km, 86.4° (Epoch: 25 January)

Date Brightness Start Highest point End Pass type
(mag) Time Alt. Az. Time Alt. Az. Time Alt. Az.
26 Jan 7.4 06:23:49 10° SE 06:28:24 33° E 06:33:03 10° NNE visible
26 Jan 5.4 18:29:02 10° N 18:34:16 74° E 18:39:29 10° S visible
26 Jan 8.2 20:11:04 10° NW 20:14:27 17° WNW 20:17:39 10° WSW visible
27 Jan 8.2 05:51:29 10° ESE 05:55:06 20° ENE 05:58:53 10° NNE visible
27 Jan 5.8 17:55:38 10° N 18:00:36 43° E 18:05:35 10° SSE visible
27 Jan 7.5 19:36:45 10° NNW 19:41:11 28° W 19:45:32 10° SW visible
28 Jan 8.7 05:20:16 10° E 05:21:55 12° ENE 05:23:50 10° NE visible
28 Jan 5.8 06:56:38 10° S 07:01:51 78° E 07:07:05 10° N visible
28 Jan 6.5 19:02:49 10° NNW 19:07:50 47° W 19:12:48 10° SSW visible
29 Jan 6.8 06:23:28 10° SSE 06:28:23 45° E 06:33:22 10° NNE visible
29 Jan 5.6 18:29:07 10° N 18:34:22 81° W 18:39:35 10° S visible
29 Jan 8.6 20:12:07 10° NW 20:14:20 12° WNW 20:16:17 10° W visible
30 Jan 7.7 05:50:46 10° SE 05:55:02 27° E 05:59:25 10° NNE visible
30 Jan 5.6 17:55:37 10° N 18:00:48 60° E 18:05:57 10° SSE visible
30 Jan 8.1 19:37:14 10° NNW 19:41:07 21° W 19:44:52 10° SW visible
31 Jan 8.5 05:18:44 10° ESE 05:21:47 16° ENE 05:25:02 10° NE visible
31 Jan 5.5 06:56:43 10° S 07:01:56 78° W 07:07:11 10° N visible
31 Jan 7.2 19:03:07 10° NNW 19:07:50 35° W 19:12:28 10° SSW visible
01 Feb 6.1 06:23:16 10° S 06:28:24 63° E 06:33:35 10° N visible
01 Feb 6.2 18:29:17 10° N 18:34:25 59° W 18:39:32 10° SSW visible
02 Feb 7.1 05:50:17 10° SSE 05:55:00 37° E 05:59:47 10° NNE visible
02 Feb 5.5 17:55:40 10° N 18:00:56 82° E 18:06:09 10° S visible
02 Feb 8.5 19:37:58 10° NW 19:41:01 15° WNW 19:43:52 10° WSW visible
03 Feb 8.0 05:17:49 10° SE 05:21:41 22° E 05:25:42 10° NNE visible
03 Feb 5.6 06:56:57 10° SSW 07:02:04 56° W 07:07:13 10° N visible
03 Feb 7.8 19:03:30 10° NNW 19:07:47 26° W 19:11:57 10° SW visible
04 Feb 8.6 04:46:14 10° E 04:48:28 13° ENE 04:50:57 10° NE visible
04 Feb 5.6 06:23:15 10° S 06:28:28 86° E 06:33:44 10° N visible
04 Feb 6.9 18:29:30 10° NNW 18:34:26 43° W 18:39:19 10° SSW visible
